Location: Cisewo
(53.3833°N, 14.9000°E)
Time: 11:45:12
(UTC+00:00)

BEESAT 3 - Pass Details

Date: 30 September 2021
Orbit: 481 x 510 km, 64.9° (Epoch: 22 October)

Event Time Altitude Azimuth Distance (km) Brightness Sun altitude
Rises 20:43:16 0° 313° (NW) 2,621 ? -33.4°
Reaches altitude 10° 20:45:28 10° 310° (NW) 1,735 ? -33.6°
Enters shadow 20:46:05 14° 308° (NW) 1,489 ? -33.7°
